User: anonymous   Login
Location: Vancouver
(49.2500°N, 123.1330°W)
Time: 09:19:17
(UTC-07:00)
Language:

BREEZE-M DEB (TANK) - Orbit

View from above orbital plane
View from above orbital plane
View from above satellite
View from above satellite

Ground track
Ground track

The orbit data is extracted from the following two-line orbital elements,

1 27821U 03024B   17291.57561733  .00002890  00000-0  25702-3 0  9994
2 27821  49.5419 163.2520 4938516 124.0805 292.9888  5.76755822287559
Epoch (UTC): 18 October 2017 13:48:53
Eccentricity: 0.4938516
inclination: 49.5419°
perigee height: 270 km
apogee height: 13242 km
right ascension of ascending node: 163.2520°
argument of perigee: 124.0805°
revolutions per day: 5.76755822
mean anomaly at epoch: 292.9888°
orbit number at epoch: 28755

The dashed part of the orbit path shows where the satellite is in the earth's shadow,  

DLR